Regional Weather Roundup
Issued by NWS

Home | Current Version | Previous Version | Graphics & Text | Print | Product List | Glossary On
Versions: 1 2 3 4 5 6 7 8 9 10 11 12 13 14 15 16 17 18 19 20 21 22 23 24 25 26 27 28 29 30 31 32 33 34 35 36 37 38 39 40 41 42 43 44 45 46 47 48 49 50
000
ASUS43 KFSD 230702
RWRSD

WEATHER ROUNDUP FOR SOUTH DAKOTA
NATIONAL WEATHER SERVICE SIOUX FALLS SD
200 AM CDT SAT AUG 23 2014

NOTE: "FAIR" INDICATES FEW OR NO CLOUDS BELOW 12,000 FEET WITH NO
SIGNIFICANT WEATHER AND/OR OBSTRUCTIONS TO VISIBILITY.


SDZ001>005-009-010-012>017-230800-
NORTHWEST AND NORTH CENTRAL SOUTH DAKOTA

CITY           SKY/WX    TMP DP  RH WIND       PRES   REMARKS
BUFFALO          N/A     64  60  87 E20       29.93F
FAITH            N/A     65  64  97 E16       29.99F
MOBRIDGE       CLOUDY    67  65  93 E16G24    29.97F
$$

SDZ012>016-024>037-041>051-057-063-072>074-230800-
SOUTHWEST AND SOUTH CENTRAL SOUTH DAKOTA

CITY           SKY/WX    TMP DP  RH WIND       PRES   REMARKS
RAPID CTY ARPT LGT RAIN  66  64  93 E12       29.96F
PIERRE         CLOUDY    69  68  96 E10       29.92F
ELLSWORTH AFB  CLOUDY    66  64  94 E8        29.96F
PHILIP         CLOUDY    68  64  87 E9        29.94F
PINE RIDGE     RAIN      63  62  97 E10       29.97F
WINNER         LGT RAIN  72  69  90 NE6       29.93F
$$

SDZ004>011-016>023-039-040-230800-
NORTHEAST SOUTH DAKOTA

CITY           SKY/WX    TMP DP  RH WIND       PRES   REMARKS
ABERDEEN       MOCLDY    65  64  97 NE10G20   30.01F
WATERTOWN      CLOUDY    67  66  97 NE10      30.00F
SISSETON         N/A     66  66 100 NE9       30.02F
$$

SDZ017-020-022-023-036>040-048>070-230800-
SOUTHEAST SOUTH DAKOTA

CITY           SKY/WX    TMP DP  RH WIND       PRES   REMARKS
SIOUX FALLS    CLOUDY    72  68  87 E7        29.96F
HURON          CLOUDY    72  68  87 E13       29.94F
CHAMBERLAIN    LGT RAIN  71  69  95 E6        29.93F
MITCHELL       CLOUDY    73  70  90 E9        29.93F
YANKTON        CLOUDY    73  72  94 SE7       29.94S
$$

ABBREVIATIONS USED IN REMARKS
   TC - TEMPERATURE IN CELSIUS
  WCI - WIND CHILL INDEX
   HX - HEAT INDEX
  VSB - VISIBILITY



USA.gov is the U.S. government's official web portal to all federal, state and local government web resources and services.